Theta_e
299 300 300 301 301 302 303 304 306 309 315 320 324 328 333 333 335 336 334 332 332 330 329 330 332 334 332 331 328 326 323 322 320 319 320 319 319 320 319 319 320 321 320
299 299 299 299 300 300 301 302 304 306 308 312 317 322 328 332 333 334 335 334 332 333 332 329 330 334 333 332 330 328 325 322 320 319 319 319 320 319 320 320 320 321 321
299 299 299 299 299 299 299 300 300 302 306 310 312 316 322 327 331 333 335 332 333 331 332 332 330 333 335 333 332 329 327 324 321 320 319 320 319 319 320 320 320 320 321
302 301 299 298 298 298 298 298 299 299 300 303 309 311 315 322 327 330 331 330 332 332 332 332 332 332 333 332 334 332 329 324 322 320 320 320 320 320 320 321 321 320 320
301 302 302 300 299 298 298 298 298 298 299 300 302 307 311 313 320 325 329 331 331 333 333 331 332 333 333 333 333 332 331 326 323 321 321 321 320 320 320 321 320 320 320
301 300 300 301 301 301 300 299 299 299 298 298 299 301 306 311 313 318 324 329 331 331 333 332 332 333 333 334 334 333 331 329 324 322 322 321 321 320 321 321 321 321 320
298 298 299 299 299 299 300 300 300 300 299 298 298 300 302 305 310 312 317 324 329 330 331 332 330 332 332 333 334 335 330 331 329 325 323 322 321 321 321 321 321 320 319
298 299 299 299 299 299 299 299 300 300 300 299 298 305 309 308 309 313 316 319 326 329 329 330 331 332 332 333 333 333 333 331 330 327 326 324 323 321 319 321 320 320 319
297 297 297 297 297 296 296 297 300 302 301 300 299 298 307 314 317 319 324 323 325 328 329 330 329 329 331 332 332 333 333 331 330 328 328 324 321 319 321 321 321 320 319
297 297 296 296 296 296 298 299 301 302 301 300 300 298 298 304 310 316 321 323 324 327 330 328 327 327 331 331 331 332 332 329 330 329 328 325 321 321 320 321 321 319 319
297 297 295 295 296 297 298 298 300 301 301 300 299 298 298 299 302 307 312 319 323 325 327 329 330 330 333 334 330 331 331 330 329 327 326 324 322 320 320 321 319 320 319
297 296 295 295 296 297 297 297 298 299 299 299 298 298 298 301 300 308 313 316 321 322 324 326 326 326 325 330 329 329 329 331 328 326 325 322 321 320 319 318 319 319 318
296 296 296 296 295 296 296 297 298 298 298 298 298 299 299 299 301 301 306 311 313 320 322 321 324 326 324 324 326 326 328 329 324 326 323 321 321 319 318 319 318 317 315
295 296 296 296 296 295 295 296 298 298 298 298 299 299 299 299 301 302 305 308 313 315 320 321 324 324 326 327 322 322 327 328 324 322 322 320 321 320 320 319 317 315 312
295 296 296 296 296 296 295 296 297 297 298 299 299 298 298 299 301 303 305 306 310 315 317 316 321 322 323 323 325 325 323 323 322 322 321 321 320 320 320 316 315 312 308
295 295 295 296 296 296 296 297 297 298 298 299 299 298 298 301 303 304 305 306 309 312 316 314 318 319 321 322 322 321 318 319 317 320 321 320 319 318 316 313 311 309 305
295 295 295 296 296 296 297 298 298 298 298 298 298 297 298 299 302 303 303 305 309 313 314 315 309 314 321 321 318 317 310 310 308 311 317 316 316 314 311 305 303 299 295
296 296 297 296 297 296 297 297 297 298 298 298 297 298 298 299 300 302 303 305 309 312 313 313 305 310 315 315 311 308 307 306 303 302 306 307 308 307 301 301 294 293 292
297 297 297 298 297 297 297 297 297 297 297 297 297 298 299 300 302 304 305 308 312 314 311 311 305 303 306 308 309 305 302 300 299 298 300 300 304 299 296 292 292 293 295
297 298 298 298 298 297 297 297 297 297 297 297 298 298 300 303 302 305 307 310 313 312 311 309 305 302 302 302 303 305 300 298 297 296 297 297 294 292 292 293 294 293 293
298 298 298 298 298 298 298 299 299 299 299 300 300 300 302 303 303 305 309 311 312 311 311 304 302 301 299 298 300 298 298 297 295 294 294 291 290 290 291 292 292 292 293
298 298 298 298 299 299 299 300 300 300 301 301 302 303 303 304 304 307 310 310 311 312 309 309 300 299 298 299 299 299 299 296 292 289 289 289 289 290 291 291 292 291 292
300 300 300 300 300 301 301 302 302 302 301 302 303 305 306 305 308 309 311 311 310 308 310 306 302 298 298 299 300 297 296 296 293 288 288 289 289 290 290 291 291 291 291
306 305 304 303 303 304 305 305 304 303 303 304 305 307 309 310 310 311 306 303 302 299 301 301 299 299 300 298 297 295 291 288 287 288 288 287 288 289 289 289 290 290 290
306 306 306 305 304 307 308 308 307 305 305 306 306 308 310 310 310 310 308 302 298 296 297 299 299 295 293 291 290 289 287 287 287 287 287 288 289 289 289 289 289 290 290
304 304 303 301 302 302 302 303 305 303 302 300 300 300 300 299 301 304 303 301 297 296 296 293 292 290 289 287 287 287 287 287 287 287 288 288 289 289 289 289 290 290 290
Wind_Speed
26 26 26 27 26 26 26 27 27 26 27 28 27 30 30 29 31 33 37 31 31 32 32 31 28 28 23 20 20 17 15 15 14 14 12 9 7 6 6 7 8 8 8
26 26 26 27 27 28 29 29 29 29 29 29 30 28 31 31 30 30 33 32 35 35 33 35 33 32 27 24 23 21 18 17 16 15 14 12 9 8 7 8 9 9 8
22 23 25 26 27 28 29 30 29 29 31 31 31 31 29 33 31 30 33 33 38 40 37 37 37 35 33 28 26 24 21 19 19 17 15 13 11 10 9 10 10 10 10
22 23 25 26 27 29 30 30 31 32 30 31 34 33 31 31 34 32 32 33 36 37 39 40 39 38 37 32 29 27 24 22 21 18 16 14 13 11 10 11 11 11 13
23 24 25 26 26 27 28 28 30 31 31 30 32 36 36 33 33 38 35 34 36 35 38 42 42 39 40 38 34 30 27 25 23 20 18 16 14 12 12 13 13 13 14
23 24 26 27 26 27 29 29 29 29 29 30 32 35 38 38 35 34 37 36 36 37 37 41 39 38 39 42 38 34 29 28 25 23 21 18 15 12 11 14 14 13 14
28 29 29 29 29 30 29 29 29 29 30 28 30 32 35 38 39 36 35 37 38 36 34 40 38 41 44 42 45 40 35 30 27 24 21 18 15 13 13 14 14 15 13
24 25 26 28 28 29 29 30 30 30 29 25 24 24 19 28 31 31 31 33 38 38 34 35 34 37 38 41 44 34 33 31 27 24 21 18 16 14 13 13 14 13 14
30 29 29 31 32 34 34 32 30 27 28 27 22 17 12 9 16 18 19 26 32 38 36 32 33 32 35 38 40 39 39 35 31 24 25 20 17 14 11 12 13 15 19
31 32 35 35 34 32 29 28 28 26 26 29 26 25 22 27 15 13 12 21 26 32 35 36 32 29 29 31 35 41 38 44 35 28 26 19 16 13 14 15 19 19 18
35 38 36 32 31 29 28 27 26 26 26 28 29 27 26 25 31 30 27 21 26 27 32 34 34 30 28 29 32 34 35 34 31 31 25 20 16 15 16 21 22 21 23
36 35 32 30 30 28 27 28 27 27 27 29 30 27 26 23 24 23 18 21 24 25 28 29 32 33 31 26 27 27 31 37 32 32 28 20 18 18 24 25 26 25 15
37 35 31 29 30 30 29 27 27 25 25 28 29 29 26 28 28 31 32 28 29 24 25 30 30 29 25 23 24 25 30 35 28 33 30 29 30 34 30 28 25 14 17
42 38 35 33 33 31 31 29 29 29 26 27 29 29 28 29 28 29 29 28 22 14 26 20 25 23 23 25 23 23 30 39 34 39 34 34 36 34 30 28 15 16 18
43 36 34 33 34 34 32 31 30 31 28 27 26 27 30 29 26 25 27 31 26 15 15 13 12 21 17 16 22 28 32 38 38 36 35 37 36 30 27 16 16 15 17
43 38 35 36 32 32 32 30 30 30 29 29 30 29 28 26 24 24 23 26 25 27 16 16 17 19 22 20 30 41 45 42 40 42 39 37 32 28 19 13 13 16 18
40 36 40 38 34 31 30 29 30 29 31 32 34 33 30 30 31 29 27 25 25 25 21 18 26 35 32 40 47 47 40 37 33 34 39 34 29 18 10 7 10 13 14
39 34 33 35 33 30 31 34 34 33 34 37 36 30 29 27 31 30 24 24 22 28 27 29 34 41 46 48 46 39 34 29 25 20 16 14 12 8 3 5 6 5 8
34 33 27 27 27 29 30 30 32 34 34 33 30 26 26 22 21 20 19 22 22 26 35 40 42 44 48 47 46 39 34 36 29 26 24 15 7 5 4 10 11 14 15
32 30 30 30 27 27 27 29 30 30 28 26 25 26 22 20 20 20 20 19 19 22 29 39 45 43 45 42 41 40 41 39 35 26 23 17 12 6 15 16 16 13 15
30 30 30 29 28 28 27 26 24 23 23 23 20 22 21 22 22 21 19 18 19 28 33 40 44 45 43 44 43 42 40 31 22 15 17 15 11 13 17 17 13 9 9
30 29 29 27 27 27 25 21 21 19 17 17 19 18 19 19 23 21 19 20 23 27 38 34 45 46 45 39 37 32 29 27 23 15 17 19 14 16 18 19 11 8 11
20 17 17 17 18 17 14 17 18 20 17 14 15 15 14 18 18 22 22 18 22 26 27 42 50 46 40 32 28 24 18 15 22 22 19 23 15 15 16 16 13 13 14
18 5 5 5 8 9 9 13 15 16 14 11 13 12 14 13 17 22 36 33 30 28 34 37 43 35 28 23 16 14 19 27 27 22 20 25 17 17 14 10 11 12 14
43 39 29 24 27 14 8 10 13 14 13 11 13 14 17 26 31 35 32 33 30 34 34 38 35 31 25 21 16 20 24 27 28 21 21 24 19 19 18 20 17 15 14
46 41 39 37 38 38 36 38 38 44 45 42 42 42 43 43 43 39 41 44 51 45 43 38 36 33 28 24 20 19 23 29 28 22 19 21 15 14 15 17 17 18 19
Wind_Direction
319 316 312 309 307 303 299 294 292 291 289 286 284 276 271 264 257 251 244 241 245 247 245 244 241 240 243 246 247 247 242 239 238 232 238 245 255 259 280 297 312 328 347
320 318 315 310 307 306 302 297 293 288 284 285 284 281 272 266 259 254 258 247 242 244 244 243 240 236 241 239 243 243 243 238 237 237 237 242 255 261 274 293 300 320 327
323 321 317 317 314 311 307 301 296 289 281 278 279 278 277 267 261 257 247 251 248 244 241 240 240 234 235 236 238 240 240 238 232 234 236 240 249 260 271 287 292 302 304
321 323 322 320 316 313 311 308 305 298 292 282 276 274 274 267 261 256 255 249 244 243 239 238 238 237 234 238 235 234 239 236 232 231 234 238 246 257 267 283 294 299 302
314 315 316 319 320 320 319 312 305 304 302 294 283 274 271 271 264 257 252 251 241 244 243 237 239 239 238 238 235 232 238 233 231 232 232 238 246 255 265 279 289 292 301
307 307 305 303 310 312 313 314 308 306 305 302 293 281 272 270 269 260 254 251 249 244 248 239 238 243 242 238 235 219 235 234 228 230 230 236 245 255 266 276 278 283 294
304 301 298 298 297 297 300 303 305 306 303 305 303 291 279 270 270 266 259 248 247 246 245 236 247 245 244 240 234 218 241 226 222 226 230 235 243 253 261 269 263 279 281
305 298 296 294 293 291 290 292 294 296 300 304 308 298 298 288 269 267 263 251 245 244 240 237 238 236 239 239 242 246 220 227 226 226 231 232 236 248 260 253 263 270 255
300 299 295 292 292 292 290 284 280 279 290 294 292 292 294 270 298 268 257 244 240 240 239 238 238 239 237 239 239 237 229 220 222 224 225 229 235 247 249 256 251 223 237
294 294 293 288 288 289 284 286 274 270 279 285 289 285 275 268 287 310 259 247 244 234 238 237 238 239 234 234 235 237 234 239 218 213 220 225 234 238 242 242 211 209 249
291 292 293 287 281 282 278 280 275 270 269 276 282 286 283 269 261 264 279 281 237 237 234 239 240 237 238 232 235 237 234 240 219 221 220 230 225 229 226 199 211 228 243
289 290 291 281 277 275 274 279 276 269 266 270 276 276 279 271 262 253 262 277 252 234 230 234 236 237 242 234 235 234 241 235 223 226 227 219 207 203 175 195 225 237 254
294 290 289 282 278 272 270 272 270 277 274 268 271 271 280 269 265 260 258 274 277 252 233 239 235 228 233 233 238 239 240 228 227 231 204 198 192 185 195 217 229 251 283
296 290 285 280 279 278 270 268 264 269 277 272 269 269 275 272 264 254 255 260 259 261 205 222 211 215 218 226 231 243 216 210 223 192 200 196 196 203 215 228 247 275 291
297 292 284 284 278 275 270 267 263 264 268 270 273 274 274 268 258 252 251 255 265 266 219 241 192 207 216 226 221 205 188 187 182 188 194 196 199 215 227 241 263 283 296
294 292 284 287 281 270 267 266 263 261 264 265 267 279 271 254 249 253 257 251 254 264 249 202 176 197 206 190 175 170 160 168 174 187 192 197 210 216 230 245 272 288 297
286 283 280 280 275 270 266 260 260 262 263 266 268 273 267 252 242 248 255 255 247 252 244 200 154 158 181 173 160 166 158 154 155 170 188 199 205 209 213 250 279 291 311
288 291 283 276 274 266 263 264 263 262 264 268 270 263 262 253 244 245 247 248 238 237 227 167 149 150 154 162 157 151 149 147 127 123 137 145 156 162 193 276 303 352 22
296 290 285 282 274 269 268 265 263 264 264 265 263 260 256 245 233 229 234 233 243 224 197 172 151 151 152 158 162 151 133 122 118 117 121 119 138 101 32 66 72 80 57
293 292 288 286 277 272 268 267 266 262 261 256 252 250 239 232 233 225 219 229 228 202 173 166 161 155 154 152 152 153 139 138 128 122 115 108 101 88 88 78 65 62 58
287 283 280 277 276 273 267 263 259 254 253 257 246 227 230 230 225 223 221 219 221 190 175 169 166 163 151 146 148 140 135 135 127 121 104 106 106 108 100 88 63 51 64
289 281 273 267 261 260 258 254 248 253 240 248 235 231 237 224 215 215 216 224 223 204 179 188 170 158 156 149 143 142 137 131 109 115 120 109 110 101 91 78 63 41 40
310 284 271 269 265 261 257 240 235 243 243 216 218 220 206 210 206 197 201 218 195 186 198 184 178 163 147 140 135 134 128 125 125 126 124 115 121 109 98 98 68 55 43
355 304 274 277 277 271 244 230 233 224 231 222 215 217 211 213 209 201 146 142 144 150 167 175 160 135 129 126 122 118 131 127 119 123 128 108 107 93 85 83 78 53 45
72 74 77 77 64 81 125 149 171 180 170 189 175 202 189 165 164 167 161 140 125 120 133 132 125 116 107 105 112 127 127 123 121 123 118 109 107 96 80 70 60 50 42
83 86 85 84 82 82 89 104 123 112 102 96 96 100 112 117 132 144 137 132 124 124 126 120 115 114 113 110 110 112 126 125 122 116 118 115 110 95 77 73 70 61 61